AOR-E (EGNOS/PRN 120) 1 24307U 96053A 12135.08559926 -.00000137 00000-0 10000-3 0 2141 2 24307 0.1782 48.6762 0005372 354.9098 203.9433 1.00271273 57430 ARTEMIS (EGNOS/PRN 124) 1 26863U 01029A 12136.94927454 .00000113 00000-0 10000-3 0 2952 2 26863 9.8555 54.8499 0004013 32.5526 149.7576 1.00271452 40813 MTSAT-1R (MSAS/PRN 129) 1 28622U 05006A 12133.50260019 -.00000298 00000-0 10000-3 0 6782 2 28622 0.0136 330.2001 0000303 358.0772 223.3450 1.00269777 26386 CRE (WAAS/PRN 138) 1 28868U 05036A 12135.36210672 -.00000087 00000-0 00000-0 0 9889 2 28868 0.0112 322.4131 0001544 120.7557 172.3776 1.00272900 24544 CRW (WAAS/PRN 135) 1 28884U 05041A 12135.36608030 .00000065 00000-0 10000-3 0 3324 2 28884 0.0444 37.5167 0001789 17.6626 176.1140 1.00273652 24132 IOR-W (EGNOS/PRN 126) 1 28899U 05044A 12136.99303063 .00000126 00000-0 10000-3 0 2171 2 28899 2.2252 339.7808 0003067 83.3127 193.5735 1.00273897 23925 MTSAT-2 (MSAS/PRN 137) 1 28937U 06004A 12136.26603734 -.00000253 00000-0 10000-3 0 1732 2 28937 0.0463 85.7979 0002857 331.1259 57.2757 1.00271693 22898 AMR (WAAS/PRN 133) 1 33278U 08039A 12135.36236590 -.00000159 00000-0 10000-3 0 6840 2 33278 3.0059 342.6727 0002234 88.0359 194.5894 1.00271658 13720 QZS-1 (QZSS/PRN 183) 1 37158U 10045A 12133.38540684 -.00000187 00000-0 10000-3 0 3076 2 37158 40.7272 186.3609 0757718 269.7480 45.9199 1.00302343 6124 GSAT 8 (GAGAN/PRN 127) 1 37605U 11022A 12130.69192299 .00000067 00000-0 10000-3 0 2070 2 37605 0.1034 80.6865 0003322 241.9894 209.3225 1.00271701 3590 LUCH 5A (SDCM/PRN 125) 1 37951U 11074B 12136.61660794 .00000050 00000-0 00000+0 0 1020 2 37951 4.5512 266.3468 0004133 184.5320 63.1862 1.00271229 1587